Elazig, Turkey

3:21 PM +03 on May 24, 2018 (GMT +0300)
Elazig

Weather History for LTCA - March, 2013

Change the Weather History Date:

Monday, March 11, 2013

  Actual Average Record
Temperature  
Mean Temperature 44 °F -  
Max Temperature 61 °F 53 °F 64 °F (2016)
Min Temperature 26 °F 30 °F 17 °F (2012)
Degree Days  
Heating Degree Days 22    
Moisture  
Dew Point 31 °F    
Average Humidity 60    
Maximum Humidity 93    
Minimum Humidity 25    
Precipitation  
Precipitation 0.00 in - - ()
Sea Level Pressure  
Sea Level Pressure 29.93 in    
Wind  
Wind Speed 5 mph ()    
Max Wind Speed 10 mph    
Max Gust Speed -    
Visibility 7.4 miles    
Events      
Averages and records for this station are not official NWS values.
T = Trace of Precipitation, MM = Missing Value Source: Averaged Metar Reports

Daily Weather History Graph

Daily Weather History Graph

Search for Another Location

Airport or City:

Astronomy

Mar. 11, 2013 Rise Set
Actual Time 5:40 AM EET 5:25 PM EET
Civil Twilight 5:13 AM EET 5:52 PM EET
Nautical Twilight 4:43 AM EET 6:23 PM EET
Astronomical Twilight 4:12 AM EET 6:54 PM EET
Moon 5:02 AM EET (3/11) 5:14 PM EET (3/11)
Length of Visible Light 12h 38m
Length of Day
11h 45m
Waning Crescent, 0% of the Moon is Illuminated
Mar 11
Waning Crescent
Mar 11
New
Mar 19
First Quarter
Mar 27
Full
Apr 3
Last Quarter

Hourly Weather History & Observations

Time (EET) Temp. Windchill Dew Point Humidity Pressure Visibility Wind Dir Wind Speed Gust Speed Precip Events Conditions
12:50 AM 33.8 °F - 28.4 °F 81% 29.92 in - Variable 2.3 mph - N/A   Clear
1:50 AM 30.2 °F 26.7 °F 26.6 °F 86% 29.92 in - WSW 3.5 mph - N/A   Clear
2:00 AM 30 °F - 26 °F 78% 29.95 in 12 mi WSW 3.5 mph - -  
2:50 AM 32.0 °F 26.4 °F 26.6 °F 80% 29.92 in - WNW 5.8 mph - N/A   Clear
3:50 AM 28.4 °F 21.2 °F 26.6 °F 93% 29.92 in - SW 6.9 mph - N/A   Clear
4:50 AM 28.4 °F 22.2 °F 26.6 °F 93% 29.92 in - SSW 5.8 mph - N/A   Clear
5:50 AM 26.6 °F 20.0 °F 23.0 °F 86% 29.95 in - SW 5.8 mph - N/A   Clear
6:50 AM 33.8 °F 30.8 °F 28.4 °F 81% 29.95 in - West 3.5 mph - N/A   Clear
7:50 AM 42.8 °F 40.1 °F 32.0 °F 66% 29.98 in - SE 4.6 mph - N/A   Clear
8:00 AM 44 °F - 32 °F 52% 30.01 in 12 mi SE 4.6 mph - -  
8:50 AM 46.4 °F 44.3 °F 32.0 °F 57% 29.98 in - East 4.6 mph - N/A   Clear
9:50 AM 48.2 °F - 32.0 °F 54% 29.95 in 6.2 mi ENE 8.1 mph - N/A   Scattered Clouds
10:50 AM 51.8 °F - 32.0 °F 47% 29.95 in 6.2 mi ENE 6.9 mph - N/A   Partly Cloudy
11:50 AM 57.2 °F - 33.8 °F 41% 29.92 in 6.2 mi Variable 5.8 mph - N/A   Partly Cloudy
12:50 PM 59.0 °F - 32.0 °F 36% 29.89 in 6.2 mi Variable 4.6 mph - N/A   Scattered Clouds
1:50 PM 59.0 °F - 32.0 °F 36% 29.89 in 6.2 mi ENE 9.2 mph - N/A   Scattered Clouds
2:00 PM 59 °F - 32 °F 25% 29.90 in 12 mi ENE 9.2 mph - -   Partly Cloudy
2:50 PM 59.0 °F - 32.0 °F 36% 29.89 in 6.2 mi ENE 8.1 mph - N/A   Scattered Clouds
3:50 PM 59.0 °F - 32.0 °F 36% 29.89 in 6.2 mi East 10.4 mph - N/A   Scattered Clouds
4:50 PM 55.4 °F - 33.8 °F 44% 29.89 in 6.2 mi ENE 9.2 mph - N/A   Scattered Clouds
5:50 PM 53.6 °F - 35.6 °F 51% 29.89 in 6.2 mi SSW 9.2 mph - N/A   Scattered Clouds
6:50 PM 51.8 °F - 33.8 °F 50% 29.92 in 6.2 mi Variable 1.2 mph - N/A   Scattered Clouds
7:50 PM 51.8 °F - 33.8 °F 50% 29.92 in 6.2 mi North 4.6 mph - N/A   Scattered Clouds
8:00 PM 51 °F - 35 °F 42% 29.91 in 12 mi North 4.6 mph - -   Partly Cloudy
8:50 PM 48.2 °F - 35.6 °F 62% 29.92 in 6.2 mi North 4.6 mph - N/A   Scattered Clouds
9:50 PM 48.2 °F - 35.6 °F 62% 29.92 in 6.2 mi North 5.8 mph - N/A   Scattered Clouds
10:50 PM 46.4 °F 44.3 °F 35.6 °F 66% 29.92 in 6.2 mi North 4.6 mph - N/A   Scattered Clouds
11:50 PM 41.0 °F 37.1 °F 33.8 °F 76% 29.92 in 6.2 mi SSW 5.8 mph - N/A   Scattered Clouds